Temp
17 16 16 15 15 15 14 14 14 14 14 14 14 14 13 13 13 13 13 13 13 13 13 13 12 12 12 12 12 12 12 12 12 12 11 11 11 11 11 11 10 10 10 10 10 9 9 9 9 9 9 8 8 8 8 8 8 8 8 7 7 7 7 6 6 6 5 5 4
16 16 16 15 15 15 14 14 14 14 14 14 14 13 13 13 13 13 13 13 13 12 12 12 12 12 12 12 12 12 12 12 11 11 11 11 11 11 10 10 10 10 10 10 9 9 9 9 9 8 8 8 8 7 7 7 7 7 7 7 7 7 6 6 6 5 5 5 4
16 16 15 15 15 15 14 14 14 14 14 14 13 13 13 13 13 13 13 12 12 12 12 12 12 12 12 12 12 12 11 11 11 11 11 11 10 10 10 10 10 10 9 9 9 9 9 8 8 8 8 7 7 7 6 6 6 7 7 7 7 6 6 6 5 5 5 5 4
16 16 15 15 15 14 14 14 14 14 14 13 13 13 13 13 13 12 12 12 12 12 12 12 12 12 12 12 11 11 11 11 11 11 11 10 10 10 10 10 9 9 9 9 9 9 8 8 8 7 7 7 6 6 6 6 6 6 6 6 6 6 6 5 5 5 5 4 4
16 16 15 15 15 14 14 14 14 14 13 13 13 13 13 12 12 12 12 12 12 12 12 12 11 11 11 11 11 11 11 11 11 10 10 10 10 10 10 9 9 9 9 8 8 8 8 7 7 6 6 6 6 6 6 5 5 5 5 5 5 5 5 5 5 5 5 4 4
16 16 15 15 15 14 14 14 13 13 13 13 13 12 12 12 12 12 12 12 12 11 11 11 11 11 11 11 11 11 10 10 10 10 10 10 10 9 9 9 9 9 8 8 8 7 7 6 6 6 6 6 6 6 6 5 5 5 4 4 4 4 4 4 4 5 5 5 4
15 15 15 15 14 14 14 13 13 13 12 12 12 12 12 12 12 12 11 11 11 11 11 11 11 11 11 11 11 10 10 10 10 10 10 10 9 9 9 9 8 8 8 7 7 7 6 6 6 5 5 5 5 5 5 5 5 5 4 4 4 4 3 3 4 4 5 5 4
15 14 14 14 14 13 13 13 12 12 12 12 12 12 12 12 11 11 11 11 11 11 11 11 11 11 11 11 10 10 10 10 10 10 9 9 9 9 8 8 8 8 7 7 7 6 6 6 5 5 5 5 5 5 4 4 4 4 4 4 4 4 3 3 3 4 4 5 5
14 14 13 13 13 13 12 12 12 12 12 12 11 11 11 11 11 11 11 11 11 11 11 11 10 10 10 10 10 10 10 10 9 9 9 9 8 8 8 8 7 7 7 6 6 6 6 5 5 5 5 4 4 4 4 4 4 4 4 4 4 3 3 3 2 3 3 4 4
13 13 13 13 12 12 12 12 12 11 11 11 11 11 11 11 11 11 11 11 11 10 10 10 10 10 10 10 10 9 9 9 9 8 8 8 8 8 8 7 7 6 6 6 5 5 5 5 5 5 4 4 4 4 3 3 4 4 4 3 3 3 3 2 2 2 2 2 3
13 13 12 12 12 12 12 11 11 11 11 11 11 11 11 11 11 11 10 10 10 10 10 10 10 9 9 9 9 9 8 8 8 8 8 8 7 7 7 6 6 6 5 5 5 4 4 4 4 4 4 4 3 3 3 3 3 3 3 2 2 2 2 2 2 2 2 2 2
12 12 12 12 12 11 11 11 11 11 11 11 11 11 10 10 10 10 10 10 10 9 9 9 9 9 9 8 8 8 8 7 7 7 7 7 7 6 6 6 5 5 5 4 4 4 4 4 4 4 3 3 3 3 3 2 2 2 2 1 1 1 1 1 1 1 1 1 1
12 12 12 11 11 11 11 11 11 11 11 11 10 10 10 10 10 10 10 9 9 9 8 8 8 8 8 8 7 7 7 7 6 6 6 6 6 6 5 5 5 4 4 4 4 3 3 3 3 3 3 3 2 2 2 2 1 1 1 1 1 0 0 0 0 0 0 0 0
12 11 11 11 11 11 11 11 11 11 10 10 10 10 10 10 10 9 9 8 8 8 8 7 7 7 7 7 6 6 6 6 6 5 5 5 5 5 4 4 4 4 3 3 3 3 3 2 2 2 2 2 2 1 1 1 1 1 0 0 0 0 0 0 0 0 -0 -0 -0
11 11 11 11 11 11 11 11 11 10 10 10 10 10 9 9 9 9 8 8 7 7 7 7 6 6 6 6 5 5 5 5 5 5 5 5 4 4 4 3 3 3 3 3 2 2 2 2 2 2 1 1 1 1 1 1 1 0 0 0 0 0 0 0 0 0 -0 -0 -0
11 11 11 11 11 11 11 10 10 10 10 10 9 9 9 9 9 8 8 7 7 6 6 6 6 5 5 5 5 4 4 4 4 4 4 4 3 3 3 3 2 2 2 2 2 2 2 2 1 1 1 1 1 1 1 0 0 0 0 0 0 0 0 0 0 0 0 -0 -0
11 11 11 11 11 11 11 10 10 10 10 10 9 9 9 9 8 8 7 7 6 5 5 5 5 5 4 4 4 4 4 4 3 3 3 3 3 2 2 2 2 2 2 2 2 2 2 2 1 1 1 1 0 0 0 0 0 0 0 0 0 0 0 0 0 0 0 0 0
11 11 11 11 11 11 11 10 10 10 10 9 9 9 9 9 8 8 7 7 6 5 5 5 4 4 4 4 4 3 3 3 3 3 2 2 2 2 2 2 2 2 2 2 2 2 2 1 1 1 1 1 0 0 0 0 0 0 0 0 0 0 0 0 0 0 1 1 1
11 11 11 11 11 11 10 10 10 10 10 9 9 9 9 8 8 7 7 6 5 5 4 4 4 4 4 3 3 3 3 3 2 2 2 2 2 2 2 2 2 2 2 2 2 1 1 1 1 1 1 1 0 0 0 0 0 0 0 0 0 0 0 1 1 1 1 1 1
11 11 11 11 11 10 10 10 10 10 9 9 9 8 8 8 7 7 6 6 5 5 4 4 4 4 3 3 3 3 3 2 2 2 2 2 2 2 2 2 2 2 2 2 2 1 1 1 1 1 1 1 0 0 0 0 0 0 0 0 0 0 0 1 1 1 1 1 1
11 11 11 10 10 10 10 10 10 9 9 9 8 8 8 7 7 6 5 5 5 4 4 4 4 4 3 3 3 3 3 2 2 2 2 2 2 2 2 2 2 2 2 2 2 2 2 2 1 1 1 1 1 0 0 0 0 0 0 0 0 0 0 1 1 1 1 1 1
11 11 10 10 10 10 9 9 9 9 9 8 8 8 7 7 6 6 5 5 4 4 4 4 4 3 3 3 3 3 3 3 3 3 3 3 3 3 2 2 2 2 2 2 2 2 2 2 2 1 1 1 1 0 0 0 -0 -0 -0 -0 -0 0 0 0 1 1 1 1 1
11 11 10 10 10 10 10 9 9 9 8 8 8 7 7 6 6 5 5 5 4 4 4 4 4 3 3 3 3 3 3 3 3 3 3 3 3 3 3 3 3 3 3 3 3 3 2 2 2 2 1 1 1 0 0 -0 -0 -0 -0 -0 -0 -0 0 0 0 1 1 1 1
11 11 10 10 10 10 10 10 9 9 8 8 7 7 7 6 5 5 5 5 4 4 4 4 4 4 4 4 3 3 3 3 3 3 3 3 3 3 3 3 3 3 3 3 3 3 2 2 2 2 1 1 0 0 -0 -0 -1 -1 -1 -1 -0 -0 -0 -0 0 0 0 1 1
10 10 10 10 10 10 10 10 9 9 8 7 7 7 6 6 6 5 5 5 5 4 4 4 4 4 4 4 4 4 4 4 4 4 4 4 4 3 3 3 3 3 3 3 3 3 2 2 2 2 1 1 0 0 -0 -1 -1 -1 -1 -1 -1 -1 -1 -0 -0 -0 0 0 1
10 10 10 10 10 10 10 10 9 8 7 7 6 6 6 6 6 5 5 5 5 5 5 4 4 4 4 4 4 4 4 4 4 4 4 4 4 4 3 3 3 3 3 3 3 2 2 2 2 1 1 1 0 -0 -1 -1 -1 -1 -1 -1 -1 -1 -1 -1 -1 -0 -0 0 1
9 9 10 10 10 10 10 10 9 8 7 6 6 6 6 6 6 5 5 5 5 5 5 5 4 4 4 4 4 4 4 4 4 4 4 4 4 3 3 3 3 3 3 2 2 2 2 2 1 1 1 0 -0 -1 -1 -1 -1 -1 -1 -1 -1 -1 -1 -1 -1 -0 -0 0 0
9 9 9 9 10 10 9 8 7 7 6 6 6 5 5 5 5 5 5 5 5 5 5 5 4 4 4 4 4 4 4 4 4 4 4 4 4 3 3 3 3 3 2 2 2 2 1 1 1 1 0 -0 -0 -1 -1 -1 -1 -1 -2 -2 -2 -2 -1 -1 -1 -1 -0 -0 0
9 9 9 9 9 9 8 7 6 6 6 6 5 5 5 5 5 5 5 5 5 5 5 5 4 4 4 4 4 4 4 4 4 4 4 4 3 3 3 3 2 2 2 2 1 1 1 0 0 0 -0 -1 -1 -1 -1 -2 -2 -2 -2 -2 -2 -2 -2 -1 -1 -1 -1 -1 -0
9 9 9 9 9 8 7 6 6 6 6 5 5 4 5 5 5 5 5 5 4 4 4 4 4 4 4 4 4 4 4 4 4 4 4 3 3 3 3 2 2 2 2 2 1 1 0 0 -0 -0 -1 -1 -1 -1 -2 -2 -2 -2 -2 -2 -2 -2 -2 -2 -2 -1 -1 -1 -1
9 9 9 9 8 7 6 5 5 5 4 4 4 4 5 5 5 5 4 4 4 4 4 4 4 4 4 4 4 4 4 4 4 4 3 3 3 3 3 2 2 2 2 2 1 1 0 0 -0 -0 -1 -1 -1 -2 -2 -2 -2 -2 -2 -2 -2 -2 -2 -2 -2 -1 -1 -1 -1
8 8 8 8 6 5 5 5 4 4 3 3 3 4 5 5 4 4 4 4 4 4 4 4 4 4 4 4 4 4 4 4 4 4 3 3 3 3 2 2 2 2 2 1 1 1 1 0 -0 -0 -1 -1 -1 -2 -2 -2 -2 -2 -3 -3 -2 -2 -2 -2 -2 -1 -1 -1 -1
8 7 7 6 5 5 4 4 3 2 2 3 4 4 4 4 4 4 4 4 4 4 4 4 4 4 4 4 4 4 4 4 4 3 3 3 3 3 2 2 2 2 1 1 1 1 0 0 -0 -1 -1 -1 -1 -2 -2 -2 -3 -3 -3 -3 -3 -2 -2 -2 -2 -1 -1 -1 -1
7 6 5 5 4 4 3 3 2 2 2 3 4 4 4 4 4 4 4 3 3 4 4 4 4 4 4 4 4 4 4 4 3 3 3 3 3 2 2 2 2 2 1 1 1 0 0 -0 -1 -1 -1 -1 -2 -2 -2 -2 -3 -3 -3 -3 -3 -3 -2 -2 -2 -2 -2 -2 -1
6 5 5 4 3 3 2 2 2 3 4 4 4 4 4 3 3 3 3 3 4 4 4 4 4 4 4 4 4 4 4 3 3 3 3 3 2 2 2 2 2 1 1 1 1 0 -0 -1 -1 -1 -1 -1 -2 -2 -2 -3 -3 -3 -3 -3 -3 -3 -3 -3 -3 -3 -3 -2 -2
5 4 4 3 2 2 2 2 3 4 4 4 4 3 3 3 3 3 3 4 4 4 4 4 4 4 4 4 4 4 3 3 3 3 3 2 2 2 2 1 1 1 1 1 0 -0 -0 -1 -1 -1 -1 -2 -2 -2 -3 -3 -3 -3 -3 -3 -3 -4 -4 -4 -4 -4 -3 -3 -3
4 3 3 2 2 2 2 3 4 4 4 3 3 3 2 3 3 3 4 4 4 4 4 4 4 4 4 4 4 3 3 3 3 3 2 2 2 1 1 1 1 1 0 0 -0 -0 -1 -1 -1 -1 -2 -2 -2 -2 -3 -3 -3 -3 -3 -4 -4 -4 -4 -4 -4 -4 -4 -4 -4
3 2 2 2 2 3 4 4 4 3 3 2 2 2 2 3 3 3 4 4 4 3 3 3 3 3 3 3 3 3 3 3 3 2 2 2 1 1 1 1 0 0 0 -0 -0 -0 -1 -1 -1 -2 -2 -2 -2 -3 -3 -3 -3 -3 -4 -4 -4 -4 -4 -5 -5 -5 -5 -4 -4
2 2 2 3 3 4 4 4 3 3 2 2 2 2 3 3 3 3 3 3 3 3 3 3 3 3 3 3 3 3 3 3 3 2 2 1 1 1 1 0 0 0 -0 -0 -0 -1 -1 -1 -1 -2 -2 -2 -3 -3 -3 -3 -3 -4 -4 -4 -4 -4 -5 -5 -5 -5 -5 -5 -5
2 3 4 4 4 4 3 3 3 2 2 2 2 3 3 3 3 3 3 3 3 3 3 3 3 3 3 3 3 3 3 2 2 2 1 1 1 1 0 0 0 -0 -0 -0 -1 -1 -1 -1 -1 -2 -2 -3 -3 -3 -3 -3 -4 -4 -4 -4 -4 -4 -5 -5 -5 -5 -5 -5 -5
4 4 4 4 3 3 3 2 2 2 2 3 3 3 3 3 3 3 3 3 3 3 3 3 3 3 3 3 3 3 2 2 2 1 1 1 1 1 0 0 0 -0 -0 -0 -1 -1 -1 -1 -2 -2 -2 -3 -3 -3 -3 -4 -4 -4 -4 -4 -4 -5 -5 -5 -5 -5 -5 -5 -5
Height
815 815 815 815 815 815 815 816 816 816 816 816 816 815 815 815 814 814 814 814 814 813 812 812 811 810 810 809 809 809 808 808 807 807 806 806 806 805 805 804 804 804 803 803 802 802 801 800 800 799 799 799 799 799 799 798 798 797 796 796 795 795 795 794 794 794 794 794 795
814 814 814 814 814 814 815 815 815 815 815 815 815 814 814 814 814 814 813 813 813 812 811 811 810 810 809 809 808 808 807 807 806 806 805 805 804 804 804 803 803 803 802 802 801 801 800 799 799 799 798 798 798 798 798 798 797 796 795 795 794 794 794 793 792 792 793 793 794
814 814 814 814 814 814 814 814 814 814 814 814 814 814 814 813 813 813 812 812 812 811 810 810 809 809 809 808 807 807 806 806 805 805 804 804 803 803 803 802 802 802 801 801 800 800 799 799 798 798 797 797 797 797 797 797 797 796 795 794 794 793 792 792 791 791 791 792 792
813 813 813 813 813 814 814 814 814 814 814 814 813 813 813 813 812 812 811 811 811 810 810 809 809 808 808 807 806 806 805 805 804 804 803 803 802 802 802 801 801 801 800 800 799 799 798 797 797 797 796 796 796 795 796 796 796 795 794 794 793 792 791 790 790 789 790 790 791
812 812 812 813 813 814 814 814 814 813 813 813 813 812 812 812 812 811 811 810 810 809 809 809 808 807 807 806 805 805 804 804 803 803 802 802 801 801 801 800 800 800 799 799 798 798 797 796 796 796 796 795 795 795 794 794 795 794 794 793 793 792 791 789 789 788 788 789 789
812 812 813 813 813 813 813 813 813 813 812 812 812 812 811 811 811 811 810 810 809 809 809 808 807 807 806 805 804 804 803 803 802 802 801 801 800 800 800 799 799 799 799 798 797 796 796 795 795 795 795 795 794 794 794 794 794 794 793 793 792 792 791 789 788 787 787 787 788
813 813 813 813 813 813 813 813 813 812 812 812 812 811 811 811 810 810 810 809 809 808 808 807 806 806 805 804 804 803 802 801 801 800 800 800 799 799 799 798 798 798 797 797 796 796 795 795 795 794 794 794 794 794 793 793 793 792 792 791 791 792 791 790 788 787 785 785 785
814 814 814 814 813 813 813 813 813 812 812 812 811 811 810 810 810 809 809 809 808 807 807 806 805 805 804 803 803 802 801 800 800 799 799 799 799 798 798 797 797 797 797 797 796 796 795 795 795 794 794 794 794 793 793 793 792 792 791 791 790 790 790 790 789 787 785 784 784
815 814 814 814 814 814 813 813 812 812 812 811 811 810 810 810 809 809 809 808 807 806 806 805 804 804 803 802 802 801 800 800 799 799 799 798 798 798 797 797 797 797 797 796 796 796 795 795 795 794 794 794 794 793 793 792 792 791 790 790 789 789 789 789 788 787 785 784 783
815 815 815 814 814 814 813 813 812 812 811 811 810 810 810 809 809 808 807 806 806 805 804 804 804 803 802 802 801 801 800 799 799 799 798 798 798 797 797 797 796 796 796 796 796 796 795 795 794 794 794 794 793 793 792 792 791 790 790 789 789 788 787 787 787 786 785 784 783
816 816 815 815 814 814 813 812 812 811 811 810 810 809 809 808 808 807 806 805 805 804 804 803 803 802 802 802 801 800 800 799 799 799 798 798 797 797 796 796 796 796 796 796 796 795 795 794 794 794 793 793 793 792 792 791 790 790 789 788 788 787 786 786 786 786 785 784 783
816 816 815 814 814 813 812 812 811 810 810 809 809 809 808 807 807 806 805 805 804 804 803 803 803 802 802 802 801 800 800 799 799 799 798 798 797 797 796 796 796 796 795 795 795 794 794 794 793 793 792 792 792 791 791 790 790 789 789 788 787 786 786 785 785 785 784 784 782
816 815 815 814 813 813 812 811 810 810 809 809 808 808 807 807 806 805 805 804 804 803 803 803 803 803 802 802 801 801 800 799 799 799 798 798 797 796 796 796 795 795 795 794 794 794 793 793 792 792 791 791 791 791 791 790 789 789 788 787 786 786 785 784 784 783 783 783 782
815 815 814 813 813 812 811 810 809 809 808 808 807 807 807 806 805 805 804 804 804 803 803 803 803 803 803 802 802 801 800 800 799 799 798 798 797 797 796 795 795 795 794 794 794 793 793 792 792 791 791 791 791 791 790 790 789 789 788 787 786 785 784 784 783 782 782 782 781
814 814 813 812 812 811 810 809 809 808 808 807 807 806 806 805 805 804 804 804 803 803 804 804 804 804 803 803 802 802 801 800 799 799 798 798 797 796 796 795 795 794 794 794 793 793 792 792 791 791 791 791 790 790 790 789 789 788 787 786 786 785 784 783 782 782 781 781 780
814 813 812 811 810 809 809 808 808 807 807 806 806 805 805 805 804 804 804 803 803 803 804 804 804 804 804 803 803 802 801 800 800 799 798 797 797 796 796 795 794 794 794 793 793 792 792 792 791 791 791 790 790 790 789 789 788 788 787 786 785 784 783 782 781 781 780 779 779
813 812 810 809 809 808 807 807 806 806 805 805 805 804 804 804 804 803 803 803 803 803 803 804 804 804 804 803 803 802 801 800 799 799 798 797 797 796 795 795 794 794 793 793 793 792 792 792 791 791 790 790 790 789 789 788 788 787 786 785 784 784 783 782 781 780 779 779 778
812 811 809 808 807 806 805 805 804 804 804 804 803 803 803 803 803 803 802 802 802 802 803 803 803 804 803 803 802 802 801 800 799 799 798 797 796 796 795 794 794 794 793 793 792 792 792 791 791 790 790 790 789 789 789 788 787 786 786 785 784 783 782 781 780 780 779 778 777
811 810 809 807 806 804 804 803 803 802 802 802 802 802 802 802 802 802 802 802 802 802 802 802 803 803 803 803 802 801 801 800 799 798 797 797 796 795 795 794 794 793 793 792 792 792 791 791 790 790 789 789 789 789 788 787 787 786 785 784 784 783 782 781 780 779 779 778 777
809 809 808 807 805 804 803 802 801 801 801 801 800 800 800 801 801 801 801 801 801 801 801 802 802 802 802 802 801 801 800 799 798 798 797 796 796 795 794 794 793 793 792 792 791 791 790 790 789 789 789 789 788 788 787 787 786 785 784 784 783 782 781 780 779 779 778 777 776
807 806 806 805 805 804 803 802 801 800 800 800 800 799 799 799 800 800 800 800 800 800 801 801 802 802 801 801 800 800 799 798 798 797 796 796 795 794 794 793 793 792 791 791 790 790 789 789 789 789 788 788 787 787 787 786 785 784 784 783 782 781 780 779 779 778 777 776 775
804 804 804 803 803 802 802 801 800 799 799 799 799 799 798 798 799 799 799 799 799 800 800 801 801 801 800 800 799 799 798 797 797 796 795 795 794 794 793 793 792 791 790 790 789 789 789 788 788 788 787 787 786 786 786 785 784 784 783 782 781 780 779 779 778 777 776 775 774
803 802 801 801 800 800 799 799 798 798 798 798 798 798 797 797 797 798 798 799 799 799 800 800 800 800 799 799 798 798 797 796 796 795 794 794 793 793 792 792 791 790 790 789 789 788 788 787 787 786 786 786 785 785 784 784 784 783 782 781 780 779 778 778 777 776 775 774 773
802 801 800 799 798 797 797 796 796 796 796 796 797 797 796 796 796 796 797 798 799 799 799 799 799 799 798 798 797 797 796 795 794 794 794 793 792 792 791 791 790 789 789 788 788 787 787 786 786 785 785 784 784 784 783 783 782 782 781 780 779 778 777 776 775 775 774 773 772
802 801 799 798 797 796 794 794 794 793 794 794 795 795 795 794 794 795 796 797 798 799 799 799 798 798 797 797 796 796 795 794 794 793 793 792 791 791 790 790 789 789 788 788 787 786 785 785 784 784 784 784 783 783 782 782 781 781 780 779 779 777 776 775 774 774 773 772 771
802 800 799 797 795 794 793 791 790 790 791 793 794 794 794 793 793 794 795 796 797 798 798 798 798 797 797 796 795 795 794 794 793 792 792 791 790 790 790 789 789 788 788 787 786 785 784 784 783 783 783 783 782 782 781 781 780 780 779 778 778 777 775 774 773 772 771 770 770
801 799 798 796 794 792 790 789 788 788 790 792 793 793 793 792 793 793 794 795 796 797 797 797 797 796 796 795 794 794 793 793 792 791 791 790 790 789 789 789 788 788 787 786 785 784 784 783 783 783 782 782 782 781 781 780 779 779 778 777 777 776 775 774 772 771 770 769 769
800 798 796 794 792 790 788 787 787 787 789 790 791 792 792 792 792 792 794 794 795 796 796 796 796 795 795 794 794 793 792 792 791 790 790 789 789 789 788 788 788 787 786 785 784 784 783 783 783 782 782 781 781 780 780 779 779 778 777 776 775 775 774 773 771 770 769 768 767
799 796 794 792 790 788 786 785 786 787 789 789 790 790 790 791 791 792 793 794 795 795 795 795 795 794 794 793 793 792 791 791 790 789 789 789 788 788 788 788 787 787 785 784 784 783 783 782 782 781 781 781 780 779 779 778 778 777 776 775 774 774 773 772 771 769 769 767 766
797 795 792 790 788 786 784 784 786 787 788 789 789 790 790 790 790 791 792 793 794 794 794 794 794 794 793 792 792 791 790 790 789 789 788 788 788 787 787 787 787 786 785 783 783 783 782 782 781 780 780 779 779 779 778 777 777 776 775 774 774 773 772 771 770 769 768 767 765
795 793 791 789 787 785 784 785 786 787 788 789 789 789 789 789 790 791 792 793 794 794 794 794 793 793 792 791 791 790 789 789 788 788 788 787 787 787 786 786 786 785 784 783 782 782 781 781 780 779 779 779 778 777 777 776 776 775 774 774 773 772 771 770 769 768 767 765 764
794 792 790 788 786 786 786 786 786 787 789 789 789 789 789 789 790 791 792 793 793 794 793 793 793 792 791 790 790 789 789 788 788 787 787 786 786 786 785 785 785 784 784 782 781 781 780 780 779 779 778 777 777 776 776 775 775 774 774 773 772 771 770 769 768 767 766 764 764
793 791 789 788 787 787 787 787 788 789 790 791 790 789 789 789 790 791 792 793 793 793 793 792 792 791 790 790 789 789 788 787 787 786 786 786 785 785 785 784 784 783 783 781 781 780 779 779 778 778 777 776 776 775 775 775 774 774 773 772 771 770 769 768 767 766 765 764 763
792 790 788 788 787 787 787 788 789 790 791 790 790 789 789 790 790 791 792 793 793 793 792 792 791 791 790 789 789 788 787 786 786 786 785 785 784 784 784 784 783 783 782 780 780 779 778 778 777 776 776 775 775 774 774 774 774 773 772 771 770 769 769 767 766 765 764 763 762
791 789 787 787 787 787 788 789 790 790 790 790 790 789 790 790 791 792 792 793 792 792 792 791 791 790 789 789 788 787 786 786 785 785 784 784 784 783 783 783 782 782 781 780 779 778 777 777 776 775 774 774 774 774 773 773 772 772 771 770 769 769 768 767 766 764 763 762 761
791 788 787 787 787 788 789 789 790 790 790 790 790 790 790 791 792 792 792 792 792 791 791 791 790 789 789 788 787 787 786 785 784 784 784 783 783 783 782 782 782 781 781 780 779 778 777 776 775 774 774 773 773 773 772 772 771 771 770 769 769 768 767 766 765 764 763 762 761
790 788 787 787 788 789 789 790 790 790 790 790 790 791 791 792 792 792 792 792 791 791 790 790 789 789 788 787 787 786 785 784 784 783 783 782 782 782 781 781 781 780 780 780 779 778 777 775 774 773 772 772 772 771 771 770 770 769 769 768 768 767 766 765 764 764 763 762 761
791 789 789 789 790 790 791 790 790 791 791 791 791 792 792 792 792 792 792 791 791 791 790 790 789 788 787 787 786 785 784 784 783 783 782 782 781 781 781 780 780 779 779 778 778 777 776 775 774 772 771 771 770 770 769 769 769 768 768 767 766 766 765 764 764 763 762 761 760
792 790 790 790 791 791 791 791 791 791 792 792 792 792 792 792 792 792 791 791 791 790 790 789 788 787 787 786 785 784 783 783 782 782 781 781 781 780 780 779 779 778 778 777 776 776 775 774 773 771 770 769 769 769 769 768 767 767 766 766 765 764 764 764 763 762 761 760 759
792 791 790 791 791 791 791 792 792 792 792 793 793 792 792 792 791 791 791 791 790 790 789 788 787 786 786 785 784 783 783 782 782 781 781 780 780 780 779 779 778 777 776 776 775 774 773 772 771 770 769 768 768 768 767 767 766 766 765 765 764 764 763 762 762 761 760 759 759
792 791 791 791 791 792 792 792 792 792 792 792 792 792 792 791 791 791 791 790 790 789 789 788 787 786 785 784 784 783 782 782 781 781 780 780 779 779 779 778 777 776 775 774 774 773 772 771 770 769 769 768 767 767 767 766 766 765 764 764 763 763 762 761 760 760 759 758 757
Wind_Speed
8 7 6 6 6 7 8 9 10 11 11 11 12 12 12 13 13 14 14 15 16 16 17 16 16 16 16 16 16 16 16 16 17 17 17 17 17 17 18 18 17 17 17 17 17 17 17 17 17 16 16 16 16 17 17 16 16 15 15 15 15 14 14 14 14 13 11 10 10
9 9 9 10 9 10 10 11 11 11 11 12 12 13 13 13 14 15 15 16 16 17 17 17 16 16 16 17 17 17 17 17 18 18 18 18 18 18 19 18 18 18 18 18 18 18 17 17 16 16 15 15 15 16 16 17 17 17 17 16 15 15 15 14 13 12 11 11 10
10 11 11 12 12 11 11 11 11 12 12 13 13 13 13 14 15 15 16 16 17 17 17 17 17 18 18 18 18 18 18 19 19 20 20 19 19 19 19 18 18 18 18 18 18 17 17 16 16 15 14 13 13 14 15 16 18 18 18 17 16 15 15 14 13 12 11 11 10
12 11 11 10 10 10 10 10 11 12 12 13 13 14 14 15 15 16 17 17 17 18 18 18 19 19 19 19 20 20 20 20 20 20 20 19 19 19 18 18 18 18 18 18 17 16 16 15 14 13 12 12 12 13 14 15 17 18 18 17 16 15 15 14 12 11 11 11 11
12 10 9 7 7 8 9 10 11 12 12 13 13 14 15 15 16 17 18 18 18 19 20 20 21 21 21 21 21 21 21 20 20 20 20 20 19 19 18 18 18 17 17 17 16 15 15 14 12 11 11 12 13 13 13 14 15 16 17 17 17 16 15 14 13 12 12 12 12
11 9 8 7 8 9 10 11 12 12 13 13 14 15 16 16 17 18 18 19 20 21 21 21 22 22 21 21 21 21 21 21 21 20 20 20 19 19 18 17 17 16 16 15 15 14 14 12 11 11 12 14 15 15 15 15 16 16 17 18 18 18 16 15 14 14 14 14 14
12 12 11 11 12 12 13 14 14 14 15 15 15 16 17 17 18 19 20 20 21 21 21 21 21 21 21 21 21 21 21 21 20 20 19 19 18 16 15 15 15 14 14 14 13 13 12 11 10 11 13 15 16 16 16 16 16 17 18 19 19 20 19 17 16 15 15 16 16
14 14 14 15 15 15 16 16 16 16 17 17 17 17 18 19 19 20 21 21 21 21 21 21 20 20 20 21 21 21 20 19 18 17 16 15 14 13 13 13 12 12 12 12 12 11 10 9 10 11 12 13 14 15 15 16 17 18 19 20 21 22 21 20 19 17 16 16 17
15 15 16 16 16 16 17 17 17 18 18 18 18 19 19 20 21 21 21 21 21 20 20 19 19 19 19 19 19 18 17 15 14 13 12 11 11 11 11 11 11 11 11 11 11 11 10 10 10 10 11 12 13 14 15 16 18 19 21 22 23 23 23 22 20 18 17 16 17
16 17 17 17 17 17 18 18 18 19 19 19 20 20 20 21 21 21 21 20 19 18 18 17 17 17 17 17 16 15 15 14 13 13 12 12 12 12 11 11 11 11 11 12 12 12 11 11 11 12 12 13 14 16 17 18 20 21 22 22 22 21 21 21 20 19 17 17 17
17 17 17 18 18 19 19 19 19 19 19 20 20 20 20 20 20 20 19 18 17 16 15 15 15 16 16 15 15 15 14 14 14 14 14 14 14 13 13 13 13 13 13 13 13 13 13 13 14 15 15 16 17 18 19 20 21 21 20 19 18 17 17 16 16 16 17 18 17
17 18 18 18 19 19 20 20 20 19 19 19 19 18 18 18 18 18 17 16 15 14 14 14 14 15 15 15 15 15 15 15 15 15 15 15 15 15 15 14 14 15 15 15 15 15 15 16 16 17 17 18 18 18 18 19 18 17 15 14 13 12 12 12 13 14 15 16 15
18 18 19 19 19 19 19 19 19 19 18 18 17 17 17 17 16 16 15 14 13 13 13 14 14 15 15 16 16 16 16 16 16 16 16 16 16 16 16 16 16 17 17 17 17 17 16 17 17 17 17 17 16 16 15 15 13 12 11 12 12 13 13 13 15 16 18 18 18
18 19 19 19 19 19 19 18 18 17 17 16 15 15 16 15 14 13 12 12 12 12 13 14 14 15 15 16 16 16 17 17 16 16 16 16 16 16 16 16 16 17 17 17 17 16 16 16 15 14 14 14 13 12 11 11 11 12 12 13 14 15 16 17 18 19 19 20 19
18 18 19 19 19 18 18 17 17 16 15 14 14 14 15 14 12 11 10 10 11 11 12 13 14 15 15 15 16 16 16 16 15 16 15 15 15 15 15 15 15 15 15 15 14 13 13 12 11 11 10 10 10 11 11 12 13 14 15 15 16 16 17 18 19 20 20 19 19
18 19 19 19 18 18 17 17 16 15 14 13 14 14 14 13 10 8 8 9 9 10 11 12 13 14 14 14 15 15 15 14 14 14 14 14 14 13 13 13 13 13 12 12 11 11 10 10 9 9 10 10 11 12 13 14 15 16 16 17 17 17 18 19 19 19 19 19 19
20 20 19 19 18 18 17 17 16 15 14 14 14 14 13 12 9 8 7 8 8 9 9 11 12 12 13 13 13 13 13 13 13 13 12 12 12 12 12 12 12 11 11 11 11 10 10 10 10 10 10 11 12 13 14 14 15 16 16 17 17 18 18 18 18 18 18 17 17
22 22 21 20 19 18 17 17 16 16 15 14 14 13 13 11 10 8 8 7 7 8 9 10 11 11 11 11 12 12 12 12 12 12 12 12 12 12 12 12 11 11 11 11 11 11 11 11 10 10 10 11 11 12 13 14 15 15 16 16 16 17 17 17 17 16 16 16 16
24 24 24 23 21 19 18 17 16 16 15 14 13 13 12 11 10 9 8 7 7 7 9 10 10 10 9 10 10 10 11 11 11 11 11 12 12 12 12 12 12 12 12 12 12 12 11 11 11 10 10 10 11 12 13 14 15 16 16 17 17 17 17 17 17 17 17 17 16
24 24 25 24 23 21 20 18 17 16 15 14 13 12 11 10 9 7 5 5 6 7 8 9 9 9 9 9 9 10 10 11 11 12 12 12 12 12 12 13 13 13 13 13 13 12 12 12 11 10 10 10 11 12 13 14 15 16 17 17 18 18 18 18 18 19 19 19 18
23 24 24 24 24 23 22 20 19 17 16 14 13 11 10 8 6 4 3 3 5 7 8 8 8 8 8 8 9 9 10 11 12 12 12 12 13 13 13 13 13 14 14 14 14 13 13 12 11 10 10 10 11 12 13 14 15 16 17 18 18 18 19 19 20 20 20 20 20
24 23 24 24 24 23 23 22 20 18 15 13 12 10 8 5 3 2 2 4 5 7 7 8 8 8 9 9 9 10 11 11 12 13 13 13 14 14 14 14 14 15 15 15 15 14 13 12 11 10 10 10 11 12 13 14 15 16 17 18 19 19 19 20 20 20 21 21 21
25 24 24 24 24 23 23 22 20 17 14 12 11 9 5 2 1 1 3 5 6 7 8 8 9 9 10 10 10 10 11 12 13 13 14 14 14 14 15 15 15 15 16 16 15 15 14 13 12 11 11 11 12 12 13 14 15 16 17 18 19 20 20 20 20 21 21 21 21
27 26 26 25 25 24 24 22 20 16 14 11 10 8 4 1 1 2 4 5 7 8 9 10 11 11 11 11 11 11 12 13 14 14 14 15 15 15 15 15 15 16 16 17 16 16 15 14 14 13 13 13 12 13 13 14 14 15 17 18 19 20 21 21 21 21 22 22 22
30 30 29 28 28 27 26 24 20 17 13 10 9 7 5 3 2 3 4 6 8 9 11 12 13 13 13 12 12 12 12 13 14 14 15 15 15 15 15 15 15 16 17 18 18 18 17 16 16 15 14 13 13 13 13 14 14 15 17 18 19 21 22 22 22 22 22 22 22
34 34 33 32 31 30 29 27 22 17 12 9 8 7 5 4 4 4 6 7 9 11 12 13 14 14 13 12 12 12 13 13 14 15 15 15 15 15 15 15 15 17 18 19 19 18 17 16 15 15 15 14 13 13 13 14 15 16 17 18 19 20 21 22 23 23 23 23 23
36 36 36 35 34 33 31 28 22 15 10 7 6 6 5 4 4 5 7 8 10 12 13 14 14 13 13 12 12 12 13 14 15 16 16 15 15 14 14 14 16 17 19 19 18 17 15 13 13 13 14 14 13 13 14 15 16 17 18 19 20 20 21 22 23 23 23 23 23
36 36 36 36 35 34 30 25 19 13 8 6 5 5 4 4 4 6 7 9 10 12 13 14 14 13 12 12 12 13 14 15 16 16 16 15 14 14 14 15 16 18 19 19 16 14 12 11 11 12 12 13 13 14 14 16 17 18 19 19 20 20 21 21 22 22 23 23 23
35 35 36 36 35 31 25 20 15 11 7 5 4 4 5 4 5 6 7 9 11 12 13 14 13 13 12 12 13 14 15 16 16 16 16 15 14 14 15 16 17 18 19 17 15 12 11 11 11 11 12 13 14 15 15 16 17 19 20 20 20 21 21 21 22 22 23 23 24
35 35 36 36 32 26 20 14 10 7 5 4 4 5 4 4 5 5 7 9 11 12 13 14 14 13 13 13 14 15 16 16 17 16 16 15 15 15 15 16 17 18 18 17 15 14 13 13 13 13 14 15 16 16 17 18 18 19 20 21 21 21 22 22 23 23 23 24 24
35 36 37 36 30 22 15 10 5 4 4 6 6 5 4 4 4 6 7 9 11 13 14 14 14 14 14 14 15 16 16 17 17 16 16 15 15 16 16 17 17 18 18 18 17 16 16 16 15 15 16 16 17 18 18 19 19 20 20 21 21 22 22 23 23 23 24 24 24
37 37 36 32 26 19 12 6 3 3 5 7 6 4 3 4 5 6 8 10 12 13 14 14 14 14 15 15 16 16 17 17 17 16 16 16 16 16 17 17 18 17 18 18 19 18 18 18 17 17 17 18 18 19 19 19 20 20 20 21 21 22 22 23 23 24 24 24 24
37 34 30 25 20 15 9 5 4 3 3 5 4 4 3 4 6 7 9 11 12 13 14 14 15 15 16 16 17 17 17 17 16 16 16 16 16 17 17 18 18 18 18 19 19 19 19 18 17 17 18 18 19 19 19 19 19 19 20 20 21 21 22 23 23 23 24 24 24
34 28 23 20 17 13 10 5 3 3 4 4 3 3 4 6 7 9 10 12 13 13 14 14 15 16 16 17 17 17 17 17 16 16 16 16 16 17 17 18 18 18 19 19 20 19 19 18 18 18 18 19 19 19 18 18 18 18 19 20 20 21 22 22 23 23 23 23 23
29 23 20 18 18 14 7 1 2 4 4 3 3 5 6 8 9 10 11 12 13 13 14 15 16 17 17 17 17 17 17 17 17 16 16 16 17 17 18 18 18 19 19 20 20 20 19 19 19 19 19 19 19 18 17 17 17 17 18 19 20 20 21 22 22 23 23 23 22
24 20 18 18 15 9 3 1 2 2 2 4 6 8 9 9 10 11 11 12 13 14 15 16 17 17 18 18 17 17 17 17 17 17 16 16 17 17 18 19 19 19 19 19 19 20 20 20 20 20 19 18 17 17 16 16 16 17 17 18 19 19 20 21 22 22 22 22 22
22 19 16 13 8 4 2 2 2 4 6 8 9 9 10 10 10 11 12 13 14 15 16 17 17 18 18 18 18 17 17 17 17 17 16 16 17 18 19 19 20 20 19 19 19 19 20 20 19 19 18 17 16 16 15 15 15 16 17 17 18 18 19 20 20 21 21 21 21
19 16 12 8 5 3 3 4 7 8 9 10 10 9 9 10 11 12 13 14 15 16 16 17 17 18 18 18 18 18 18 17 17 16 16 16 17 18 19 20 20 20 20 19 19 19 20 21 19 18 17 16 16 15 15 15 15 16 16 17 17 18 18 19 19 19 20 20 21
14 11 8 5 4 4 6 8 9 9 9 9 9 9 9 10 11 12 13 14 15 16 17 17 18 18 19 19 19 19 18 17 17 16 16 17 18 19 19 20 20 20 19 19 20 20 21 21 20 18 17 15 15 14 14 15 15 16 16 16 17 17 18 18 18 19 20 20 21
8 5 4 4 5 7 8 8 9 9 8 7 8 9 10 11 12 13 14 15 15 16 17 18 18 19 19 19 19 19 18 18 17 17 17 18 19 19 19 19 19 19 20 20 21 21 22 21 19 17 15 14 14 14 14 14 15 15 16 16 17 17 18 18 19 19 20 21 21
5 3 5 7 8 8 8 9 8 7 7 7 8 9 10 11 12 13 14 15 16 17 18 18 19 19 19 19 19 19 18 18 18 18 18 18 19 19 19 19 19 19 20 21 21 22 21 20 18 16 14 14 13 13 13 14 14 15 16 16 16 17 18 19 20 20 20 21 20
Wind_Direction
292 295 302 307 307 305 302 299 297 294 292 291 291 291 293 296 298 299 299 300 299 298 297 296 295 294 294 294 294 295 296 296 295 295 295 295 295 295 296 296 298 299 301 302 304 306 306 306 304 302 300 298 297 296 295 294 294 292 288 285 283 281 280 277 273 271 269 267 263
286 287 289 292 295 296 296 294 293 292 292 292 293 295 297 299 299 299 299 298 297 297 297 297 296 295 295 295 295 296 297 298 297 297 296 296 296 297 297 298 298 299 300 302 304 305 306 306 306 304 301 299 298 297 297 296 295 293 290 286 282 279 275 270 265 261 258 256 251
280 279 279 282 284 287 290 291 293 294 295 296 298 300 302 302 301 300 298 298 298 298 298 298 298 298 298 298 298 299 300 300 299 298 297 296 296 297 297 297 298 299 300 302 303 305 307 308 309 307 305 303 301 301 301 301 300 297 293 289 283 276 268 261 256 252 247 240 236
280 276 276 277 280 284 288 292 294 296 298 300 302 304 304 304 302 301 300 300 300 300 301 301 301 300 300 300 300 300 301 301 300 300 298 298 297 296 296 297 298 300 302 304 306 308 311 314 314 314 311 307 304 303 303 304 304 302 300 295 287 275 262 251 242 237 233 228 226
291 288 286 286 289 291 295 298 301 304 306 307 308 307 306 306 305 305 304 304 304 303 303 303 302 301 300 300 300 300 299 299 299 299 299 299 298 297 296 297 300 303 306 309 312 315 318 319 320 318 313 306 303 300 300 301 303 304 304 301 293 279 261 244 232 225 221 220 220
321 321 320 317 313 312 312 314 316 317 317 316 314 312 310 309 308 308 308 308 307 305 304 304 302 301 300 299 298 297 297 297 296 297 298 299 299 299 299 301 303 306 310 313 316 318 321 321 321 315 309 305 302 300 298 298 298 299 300 300 296 287 272 253 236 224 218 217 218
342 338 333 328 326 325 326 327 327 326 324 321 319 316 314 312 311 310 309 309 307 306 305 303 302 301 300 299 297 296 295 295 295 296 297 299 301 303 306 308 310 313 316 320 321 322 325 326 322 316 312 310 307 305 303 301 298 296 297 297 295 290 281 267 251 235 223 218 218
341 336 333 330 330 330 330 329 329 327 325 323 320 318 315 313 311 310 309 307 306 305 304 302 302 301 301 301 301 300 300 301 301 302 303 304 308 312 316 319 321 324 327 330 332 333 335 335 331 327 324 322 319 316 312 309 305 303 301 299 295 289 281 272 262 249 235 224 220
337 335 333 331 331 330 329 328 327 326 324 321 318 315 313 310 308 307 306 305 304 303 303 303 304 305 307 309 310 312 315 317 320 321 321 321 323 325 328 332 335 338 339 340 341 341 341 340 339 336 333 331 328 324 319 315 311 308 305 301 296 290 281 271 263 258 250 238 228
335 333 331 330 329 327 326 324 323 321 319 316 313 311 309 307 306 305 304 304 304 305 307 309 311 314 317 320 323 326 330 334 336 335 333 331 331 332 336 339 343 343 342 342 342 340 336 334 333 330 328 327 324 320 316 312 310 307 304 301 298 293 285 274 264 262 262 255 248
330 328 327 325 324 322 321 319 317 315 312 309 307 306 305 305 305 305 305 306 308 311 314 317 320 323 325 327 330 332 334 336 336 334 331 329 329 331 334 336 337 337 335 335 334 331 327 322 319 317 317 317 316 313 311 309 306 304 303 302 303 302 297 287 280 279 279 276 270
324 321 320 318 316 315 314 312 310 308 306 304 303 303 305 306 307 307 309 311 314 318 321 325 328 329 330 331 332 332 332 333 332 331 329 329 328 328 328 328 328 327 326 325 323 322 319 315 312 312 312 311 310 310 309 307 305 305 307 310 316 320 320 316 315 315 314 311 307
317 314 313 311 310 308 307 306 305 303 302 302 303 305 306 308 309 311 314 318 323 327 330 332 333 333 332 332 331 331 330 329 328 328 327 326 325 325 324 322 320 319 318 316 316 315 314 312 311 309 308 307 307 307 306 306 309 314 318 322 324 325 326 325 327 329 331 333 334
310 308 307 306 305 305 304 304 304 303 303 304 305 308 309 310 311 314 320 327 332 334 335 336 335 334 333 332 331 330 328 327 326 325 324 323 322 322 321 319 318 316 315 313 313 312 311 311 311 310 309 307 308 308 309 311 315 317 319 319 319 318 317 317 318 320 323 326 328
306 305 304 303 303 303 304 304 305 305 306 307 308 309 310 310 312 318 328 337 339 338 336 336 336 334 332 331 330 329 328 327 326 325 323 322 321 320 320 318 318 318 317 317 317 317 317 316 317 315 312 310 309 309 310 311 311 311 311 311 311 311 310 311 312 313 315 316 317
305 303 303 303 303 303 303 304 305 305 305 306 307 307 308 309 314 324 338 348 346 341 338 338 336 334 332 330 329 329 328 328 328 327 326 325 323 322 321 321 322 322 322 322 323 322 322 321 319 317 313 310 309 309 309 309 309 309 309 308 307 307 306 307 308 309 310 311 311
305 304 303 302 301 300 300 302 302 302 301 301 302 303 305 310 318 328 339 349 352 350 345 339 337 336 333 331 330 330 330 330 330 329 329 327 326 325 324 324 323 323 323 322 321 319 318 317 315 313 311 311 311 311 311 311 311 310 310 309 307 306 305 305 305 305 305 305 304
305 304 303 301 298 296 296 298 299 300 299 298 299 301 304 309 317 324 331 340 353 355 348 340 338 335 333 331 331 331 332 331 331 330 329 327 325 324 323 322 320 319 317 314 313 311 310 309 308 307 308 309 310 311 312 312 311 310 308 307 306 304 303 301 300 299 297 296 295
303 303 303 301 298 296 295 296 299 299 299 297 298 299 302 306 312 318 324 328 339 345 344 340 335 331 328 328 329 331 332 331 329 327 326 325 323 320 318 316 314 311 309 306 304 302 301 300 299 300 302 304 307 310 311 310 309 308 307 305 304 303 301 299 297 295 293 291 289
299 301 302 302 301 299 298 298 299 299 299 298 298 299 302 304 308 316 326 330 334 338 339 335 330 325 321 321 324 327 328 327 325 323 320 319 317 314 311 309 306 304 302 300 298 295 293 291 292 294 297 301 306 309 311 311 310 309 307 305 304 303 301 300 298 296 292 290 286
298 299 300 301 301 301 300 300 299 298 297 296 296 298 302 305 308 314 328 333 333 335 334 329 321 315 311 312 316 319 320 320 319 317 313 311 309 307 305 303 301 300 298 296 294 291 289 287 287 289 293 298 305 309 311 312 311 310 308 306 304 303 302 301 299 297 294 290 286
299 298 298 298 299 300 300 299 298 296 294 292 292 295 300 306 306 313 328 332 330 328 324 316 307 301 300 301 305 309 313 313 312 310 307 305 303 302 301 301 300 299 298 297 295 293 290 287 285 285 289 295 301 306 310 311 311 310 309 307 305 304 303 301 300 299 297 295 292
302 300 297 297 296 297 297 297 295 292 289 286 287 290 297 321 5 338 326 324 322 316 308 299 293 291 292 294 297 302 307 308 307 305 304 303 302 302 302 303 302 302 302 301 300 298 294 289 284 282 284 289 295 301 305 308 310 310 310 309 307 305 304 302 301 300 299 297 296
310 306 303 299 297 296 295 294 291 287 283 280 282 284 287 297 357 338 323 317 311 302 293 288 287 290 292 293 295 299 303 305 305 305 305 305 305 305 306 306 307 307 307 306 304 299 293 286 279 276 277 282 288 294 300 305 308 310 310 309 307 306 304 302 300 299 297 296 295
317 313 309 306 302 298 295 292 287 281 277 276 277 278 279 282 299 311 311 307 302 296 291 289 291 294 296 296 298 301 304 306 307 308 308 308 308 308 309 310 311 311 312 310 306 301 294 286 278 273 272 276 283 291 298 303 307 309 309 308 307 305 303 301 299 298 296 295 294
317 314 311 308 304 300 295 290 283 278 273 272 273 275 278 283 293 300 301 300 298 296 294 294 295 297 299 300 302 305 308 311 312 311 311 310 310 310 311 313 314 315 315 312 309 304 298 289 281 276 274 277 283 291 299 304 307 309 309 308 306 303 301 300 298 297 296 295 294
314 311 309 306 303 299 295 290 284 276 268 264 266 272 279 288 297 299 299 299 299 298 298 298 298 299 301 303 306 310 313 315 315 314 313 312 312 313 315 317 318 318 316 313 312 309 304 296 288 284 283 284 289 295 302 306 309 310 310 308 305 303 300 298 297 297 296 296 296
310 308 306 303 301 298 295 291 284 275 262 252 254 265 278 290 297 299 299 299 300 300 299 299 300 300 301 303 307 311 314 315 315 315 314 314 315 317 319 319 320 317 315 314 316 317 313 305 298 294 292 293 297 302 307 310 311 311 310 308 305 302 299 297 296 296 296 297 297
308 307 305 302 300 297 294 290 283 272 256 241 245 263 277 288 297 300 300 300 300 300 301 301 302 302 302 303 305 308 311 313 314 315 316 316 317 318 319 318 318 316 315 315 320 323 321 315 309 305 303 304 307 310 313 313 313 311 309 307 304 300 298 296 296 295 296 296 296
309 307 305 303 301 298 295 290 279 261 246 247 260 271 280 291 299 301 301 301 301 301 302 303 303 302 301 302 304 307 310 312 314 316 317 318 318 318 316 315 315 314 314 316 320 323 322 319 316 314 313 313 314 316 317 316 315 313 310 306 302 299 297 295 295 295 295 295 295
311 309 307 305 304 302 298 289 267 245 255 272 275 276 283 296 303 304 304 303 302 302 303 304 303 302 302 303 306 308 310 312 314 316 318 318 317 316 314 313 313 313 313 314 317 318 318 317 316 316 315 315 317 318 319 319 317 314 310 306 303 300 297 296 296 295 295 295 295
314 313 312 312 310 307 301 290 268 260 267 273 275 281 296 310 311 309 307 305 305 305 305 304 304 304 305 307 309 310 312 313 315 317 318 317 316 314 313 313 313 312 311 311 312 313 313 313 313 313 314 314 316 319 321 321 318 315 311 307 304 302 300 299 299 298 298 297 297
317 318 321 321 317 310 302 297 295 283 267 265 273 293 318 325 322 317 313 310 308 307 305 305 307 308 310 311 311 312 313 315 316 317 317 317 316 315 314 314 313 312 309 308 309 310 311 311 311 312 312 313 316 318 320 320 317 315 312 309 308 306 305 304 304 303 302 302 302
321 325 327 324 317 308 303 303 292 264 255 264 286 321 339 337 331 324 317 312 309 307 307 308 310 311 312 311 312 312 314 316 318 319 319 318 318 317 316 316 314 312 310 310 311 312 312 312 311 310 311 312 314 316 317 317 316 314 312 311 311 311 311 310 309 309 308 308 308
324 328 328 320 310 307 312 323 236 244 259 290 336 352 352 345 334 324 316 311 310 310 311 312 312 312 311 311 311 313 315 317 319 320 321 321 321 321 319 318 315 314 313 313 314 314 313 312 310 309 308 309 310 311 312 313 313 313 313 313 314 314 315 315 314 314 313 313 313
329 331 327 319 313 314 317 247 247 271 330 4 7 4 356 344 329 319 314 314 314 315 315 314 313 311 311 311 313 315 317 319 320 321 321 323 324 324 323 320 317 315 314 315 315 314 313 311 308 306 305 304 305 305 306 307 309 311 312 314 315 316 317 317 317 316 315 314 314
336 337 335 330 328 319 288 293 351 14 19 17 11 2 349 333 322 318 319 320 320 318 316 314 313 312 312 314 316 317 318 319 319 320 322 324 326 326 324 321 317 314 312 311 311 310 309 307 303 300 298 297 298 299 301 303 306 308 311 313 314 316 317 318 317 316 314 313 313
343 347 350 351 341 329 351 22 28 27 22 14 3 349 335 325 322 323 324 324 321 318 315 314 313 313 314 316 317 318 318 318 318 320 323 325 326 325 323 319 314 311 309 308 306 305 305 303 298 293 291 290 292 294 297 300 303 305 308 310 312 314 316 316 316 315 313 311 311
348 355 0 360 359 13 26 31 30 26 17 4 349 334 327 327 327 327 324 321 317 315 314 313 314 315 316 318 318 319 319 320 321 323 325 325 324 322 320 315 311 309 307 307 306 305 303 302 297 291 288 287 290 292 295 298 300 303 305 307 309 311 313 315 315 313 311 309 308
337 356 19 31 33 32 32 29 26 18 5 348 334 330 330 330 328 324 319 315 313 313 314 314 315 317 318 320 322 323 325 326 326 326 325 324 322 319 316 313 310 308 308 307 306 305 305 303 300 294 289 288 290 292 294 298 300 301 302 304 307 309 312 314 314 313 310 308 306
316 22 50 49 44 38 32 26 17 3 348 337 334 333 332 329 323 318 314 312 313 315 316 317 318 319 322 325 327 329 331 331 329 327 324 322 320 317 315 312 310 309 308 308 308 307 307 306 305 301 295 292 292 293 295 298 299 300 301 303 307 310 312 313 314 312 310 308 305